Weather reports worldwide

Advertisment
Odiham, United Kingdom (3761): temperature & dewpoint: 13.02.2019 13:00:00 - 19.02.2019 13:00:00 (GMT)Odiham, United Kingdom (3761): temperature -20cm & temperature -100cm: 13.02.2019 13:00:00 - 19.02.2019 13:00:00 (GMT)Odiham, United Kingdom (3761): wind speed & gusts: 13.02.2019 13:00:00 - 19.02.2019 13:00:00 (GMT)Odiham, United Kingdom (3761): wind direction: 13.02.2019 13:00:00 - 19.02.2019 13:00:00 (GMT)Odiham, United Kingdom (3761): reduced air pressure: 13.02.2019 13:00:00 - 19.02.2019 13:00:00 (GMT)Odiham, United Kingdom (3761): visibility: 13.02.2019 13:00:00 - 19.02.2019 13:00:00 (GMT)Odiham, United Kingdom (3761): sunshine duration: 13.02.2019 13:00:00 - 19.02.2019 13:00:00 (GMT)Odiham, United Kingdom (3761): precipitation: 13.02.2019 13:00:00 - 19.02.2019 13:00:00 (GMT)
Date & Time tt [°C] td [°C] tt -20cm [°C] tt -100cm [°C] ff [km/h] ff [kn] fx [km/h] fx [kn] dd ppp [hPa] vv [km] sd [min] rr [mm]
19.02.2019 13:00:00 9,0 3,3 - - 22 12 - - SW 1019,6 10 54 0,0
19.02.2019 12:00:00 9,3 5,2 - - 21 11 - - SW 1020,0 10 60 0,0
19.02.2019 11:00:00 7,8 4,6 - - 18 10 - - SW 1020,2 10 60 0,0
19.02.2019 10:00:00 6,8 4,5 - - 18 10 - - SW 1020,0 10 60 0,0
19.02.2019 09:00:00 5,1 4,0 6,5 6,7 15 8 - - SW 1019,8 10 60 0,0
19.02.2019 08:00:00 3,5 2,9 - - 11 6 - - SW 1019,5 10 12 0,0
19.02.2019 07:00:00 3,3 2,6 - - 13 7 - - WSW 1018,8 10 0 0,0
19.02.2019 06:00:00 3,6 2,8 - - 15 8 - - SW 1018,4 15 0 0,0
19.02.2019 05:00:00 3,5 2,7 - - 21 11 - - SW 1018,1 10 0 0,0
19.02.2019 04:00:00 3,4 2,4 - - 16 9 - - SW 1018,0 10 0 0,0
19.02.2019 03:00:00 3,5 2,5 - - 18 10 - - SW 1017,8 10 0 0,0
19.02.2019 02:00:00 3,7 2,4 - - 13 7 - - SW 1018,0 10 0 0,0
19.02.2019 01:00:00 4,2 2,7 - - 15 8 - - SW 1017,6 16 0 0,0
19.02.2019 00:00:00 4,8 3,0 - - 21 11 - - SW 1017,2 10 - 0,0
18.02.2019 23:00:00 4,3 3,5 - - 15 8 - - SW 1017,2 10 0 0,0
18.02.2019 22:00:00 3,5 2,9 - - 15 8 - - SSW 1017,1 10 0 0,0
18.02.2019 21:00:00 3,6 3,1 - - 11 6 - - SSW 1016,8 10 0 0,0
18.02.2019 20:00:00 3,7 2,9 - - 11 6 - - SSW 1016,4 10 0 0,0
18.02.2019 19:00:00 4,8 3,8 - - 16 9 - - SSW 1015,8 10 0 0,0
18.02.2019 18:00:00 5,9 4,7 - - 16 9 - - SSW 1015,1 10 0 0,4
18.02.2019 17:00:00 6,5 5,4 - - 18 10 - - SW 1014,9 12 0 0,6
18.02.2019 16:00:00 7,2 5,1 - - 22 12 50 27 WSW 1014,7 10 0 0,4
18.02.2019 15:00:00 8,4 6,3 - - 22 12 - - SSW 1014,3 10 0 0,0
18.02.2019 14:00:00 8,6 7,0 - - 22 12 - - S 1014,5 10 0 0,0
18.02.2019 13:00:00 8,3 7,1 - - 21 11 - - SSW 1015,0 10 0 0,2
18.02.2019 12:00:00 8,1 6,9 - - 16 9 - - SSW 1015,4 12 0 0,8
18.02.2019 11:00:00 8,1 6,9 - - 21 11 - - SSW 1015,6 9 0 0,6
18.02.2019 10:00:00 8,4 7,1 - - 16 9 - - S 1015,4 10 0 0,4
18.02.2019 09:00:00 8,8 7,4 6,5 6,7 16 9 - - SSW 1015,5 10 0 0,0
18.02.2019 08:00:00 8,6 7,4 - - 18 10 - - S 1015,2 10 0 0,0
18.02.2019 07:00:00 8,4 7,3 - - 21 11 - - S 1015,0 10 0 0,0
18.02.2019 06:00:00 8,3 7,1 - - 18 10 - - SSW 1014,8 10 0 0,0
18.02.2019 05:00:00 8,4 7,1 - - 21 11 - - SSW 1015,2 12 0 0,0
18.02.2019 04:00:00 8,1 6,9 - - 18 10 - - SSW 1015,3 10 0 0,0
18.02.2019 03:00:00 8,6 7,6 - - 18 10 - - SSW 1015,6 10 0 0,0
18.02.2019 02:00:00 7,9 7,0 - - 16 9 - - SSW 1016,0 10 0 0,0
18.02.2019 01:00:00 8,2 6,9 - - 21 11 - - SSW 1016,2 12 0 0,0
18.02.2019 00:00:00 8,9 7,5 - - 22 12 - - SSW 1016,2 10 - 0,0
17.02.2019 23:00:00 9,1 7,5 - - 18 10 - - SSW 1016,1 10 0 0,0
17.02.2019 22:00:00 9,1 7,6 - - 13 7 - - S 1015,8 10 0 0,0
17.02.2019 21:00:00 9,3 7,8 - - 15 8 - - SSW 1015,8 15 0 0,0
17.02.2019 20:00:00 8,6 7,2 - - 18 10 - - S 1015,6 10 0 0,0
17.02.2019 19:00:00 9,1 7,4 - - 22 12 - - SSW 1015,7 10 0 0,0
17.02.2019 18:00:00 9,9 7,7 - - 16 9 - - SSW 1015,4 18 0 0,0
17.02.2019 17:00:00 10,4 7,5 - - 24 13 - - SSW 1014,9 10 0 0,0
17.02.2019 16:00:00 10,6 8,1 - - 21 11 - - SSW 1014,7 10 0 0,0
17.02.2019 15:00:00 10,6 8,5 - - 26 14 - - SSW 1014,7 10 0 0,0
17.02.2019 14:00:00 11,7 8,3 - - 21 11 - - S 1014,2 10 18 0,0
17.02.2019 13:00:00 12,6 7,9 - - 35 19 - - SSW 1014,4 10 48 0,0
17.02.2019 12:00:00 12,6 7,5 - - 29 16 - - SSW 1014,7 10 60 -
17.02.2019 11:00:00 11,2 6,4 - - 26 14 - - S 1014,3 10 60 -
17.02.2019 10:00:00 9,8 6,7 - - 18 10 - - S 1014,4 15 60 0,0
17.02.2019 09:00:00 7,4 5,8 6,2 6,7 24 13 - - SSE 1014,4 10 48 0,0
17.02.2019 08:00:00 5,6 5,1 - - 13 7 - - SSE 1015,1 8 0 0,0
17.02.2019 07:00:00 5,8 5,0 - - 16 9 - - SE 1015,2 7 0 0,0
17.02.2019 06:00:00 6,0 5,5 - - 21 11 - - SSE 1015,5 4,5 0 0,0
17.02.2019 05:00:00 5,4 4,9 - - 13 7 - - SE 1016,1 6 0 0,0
17.02.2019 04:00:00 5,3 4,9 - - 2 1 - - SE 1016,8 3,4 0 0,0
17.02.2019 03:00:00 5,9 5,7 - - 9 5 - - ESE 1017,7 5 0 0,0
17.02.2019 02:00:00 6,7 6,3 - - 11 6 - - SE 1018,7 3,0 0 0,0
17.02.2019 01:00:00 8,2 8,0 - - 16 9 - - SE 1019,5 2,8 0 0,0
17.02.2019 00:00:00 8,4 8,2 - - 16 9 - - SSE 1020,2 2,1 - 0,0
16.02.2019 23:00:00 8,8 8,3 - - 13 7 - - SSE 1020,7 6 0 0,0
16.02.2019 22:00:00 9,1 8,5 - - 11 6 - - SSE 1020,9 6 0 0,0
16.02.2019 21:00:00 9,0 8,4 - - 11 6 - - SSE 1021,5 4,0 0 0,0
16.02.2019 20:00:00 9,2 8,7 - - 13 7 - - SSE 1021,8 4,0 0 0,0
16.02.2019 19:00:00 9,4 8,9 - - 15 8 - - SSE 1021,9 4,0 0 0,0
16.02.2019 18:00:00 9,9 9,4 - - 15 8 - - S 1021,7 4,6 0 0,0
16.02.2019 17:00:00 10,2 9,7 - - 15 8 - - SSE 1021,7 4,7 0 0,0
16.02.2019 16:00:00 10,3 9,8 - - 15 8 - - S 1022,0 3,8 0 0,0
16.02.2019 15:00:00 11,7 10,2 - - 16 9 - - S 1022,5 10 0 0,0
16.02.2019 14:00:00 11,6 10,4 - - 21 11 - - SSW 1022,8 10 0 0,0
16.02.2019 13:00:00 11,8 10,3 - - 16 9 - - SSW 1023,1 10 0 0,0
16.02.2019 12:00:00 11,1 10,4 - - 11 6 - - S 1023,5 10 0 0,0
16.02.2019 11:00:00 10,0 9,9 - - 11 6 - - SSE 1023,9 5 0 0,0
16.02.2019 10:00:00 9,2 9,0 - - 8 4 - - SSE 1023,7 1,1 0 0,0
16.02.2019 09:00:00 8,7 8,4 5,7 6,7 11 6 - - SE 1023,4 0,8 0 0,0
16.02.2019 08:00:00 9,3 8,8 - - 8 4 - - S 1023,2 5 0 0,0
16.02.2019 07:00:00 8,9 8,6 - - 9 5 - - SSW 1022,8 3,6 0 0,0
16.02.2019 06:00:00 8,8 8,4 - - 15 8 - - SSW 1022,6 2,8 0 0,0
16.02.2019 05:00:00 8,6 7,8 - - 15 8 - - SW 1022,5 4,0 0 0,0
16.02.2019 04:00:00 7,6 6,3 - - 9 5 - - SW 1022,3 6 0 0,0
16.02.2019 03:00:00 6,5 5,2 - - 13 7 - - SSW 1022,6 6 0 0,0
16.02.2019 02:00:00 7,2 5,4 - - 13 7 - - S 1023,1 8 0 0,0
16.02.2019 01:00:00 7,4 5,8 - - 15 8 - - SSW 1023,4 10 0 0,0
16.02.2019 00:00:00 3,4 2,4 - - 9 5 - - ESE 1023,6 4,3 - 0,0
15.02.2019 23:00:00 4,9 3,3 - - 16 9 - - SSE 1024,0 5 0 0,0
15.02.2019 22:00:00 5,4 3,8 - - 15 8 - - SSE 1024,2 7 0 0,0
15.02.2019 21:00:00 5,5 4,1 - - 18 10 - - SSE 1024,4 8 0 0,0
15.02.2019 20:00:00 5,3 3,8 - - 9 5 - - SSE 1024,6 6 0 0,0
15.02.2019 19:00:00 6,7 3,6 - - 16 9 - - SSE 1025,0 18 0 0,0
15.02.2019 18:00:00 6,5 1,9 - - 11 6 - - SSE 1025,1 10 0 0,0
15.02.2019 17:00:00 9,8 3,5 - - 11 6 - - SSE 1024,8 25 36 0,0
15.02.2019 16:00:00 12,5 4,7 - - 16 9 - - SSE 1024,9 10 60 0,0
15.02.2019 15:00:00 12,9 5,2 - - 16 9 - - SSE 1025,3 10 60 0,0
15.02.2019 14:00:00 12,4 6,3 - - 18 10 - - SE 1025,8 10 60 0,0
15.02.2019 13:00:00 10,5 6,8 - - 15 8 - - SE 1026,7 9 60 0,0
15.02.2019 12:00:00 7,8 7,7 - - 13 7 - - SE 1027,5 6 30 0,0
15.02.2019 11:00:00 5,2 5,1 - - 13 7 - - SSE 1028,1 0,2 24 0,0
15.02.2019 10:00:00 4,6 4,5 - - 15 8 - - SSE 1028,2 0,1 0 0,0
15.02.2019 09:00:00 3,1 3,0 5,9 6,7 8 4 - - SSE 1028,3 0,1 0 0,0
15.02.2019 08:00:00 2,0 1,8 - - 11 6 - - SE 1028,4 0,1 0 0,2
15.02.2019 07:00:00 2,8 2,6 - - 11 6 - - SSE 1028,1 2,0 0 0,0
15.02.2019 06:00:00 2,7 2,5 - - 11 6 - - SE 1028,2 2,5 0 0,0
15.02.2019 05:00:00 1,7 1,5 - - 13 7 - - SSE 1028,5 2,5 0 0,0
15.02.2019 04:00:00 1,8 1,5 - - 15 8 - - SE 1028,4 3,0 0 0,0
15.02.2019 03:00:00 1,6 1,3 - - 15 8 - - SSE 1029,0 2,3 0 0,0
15.02.2019 02:00:00 0,9 0,5 - - 13 7 - - SE 1029,4 2,5 0 0,0
15.02.2019 01:00:00 1,2 0,6 - - 13 7 - - SE 1029,9 7 0 0,0
15.02.2019 00:00:00 2,0 1,5 - - 16 9 - - SE 1029,8 8 - 0,0
14.02.2019 23:00:00 2,4 1,6 - - 16 9 - - ESE 1029,9 9 0 0,0
14.02.2019 22:00:00 4,5 3,0 - - 18 10 - - SE 1030,0 10 0 0,0
14.02.2019 21:00:00 3,8 2,4 - - 15 8 - - SE 1030,0 10 0 0,0
14.02.2019 20:00:00 4,6 2,7 - - 16 9 - - SE 1030,1 15 0 0,0
14.02.2019 19:00:00 4,6 2,6 - - 13 7 - - SE 1030,4 20 0 0,0
14.02.2019 18:00:00 5,4 1,7 - - 15 8 - - SE 1030,3 10 0 0,0
14.02.2019 17:00:00 8,5 2,1 - - 11 6 - - SE 1030,3 10 36 0,0
14.02.2019 16:00:00 11,3 2,3 - - 15 8 - - SE 1030,2 10 60 0,0
14.02.2019 15:00:00 11,8 4,0 - - 16 9 - - SE 1030,7 10 60 0,0
14.02.2019 14:00:00 11,6 5,1 - - 15 8 - - SE 1031,0 10 60 0,0
14.02.2019 13:00:00 11,0 4,7 - - 15 8 - - SSE 1031,7 10 60 0,0
14.02.2019 12:00:00 9,1 5,0 - - 13 7 - - SE 1032,5 10 60 0,0
14.02.2019 11:00:00 8,1 5,2 - - 11 6 - - S 1032,8 15 60 0,0
14.02.2019 10:00:00 5,4 5,4 - - 5 3 - - E 1033,0 12 60 0,2
14.02.2019 09:00:00 0,2 0,1 6,0 6,7 5 3 - - E 1033,0 0,2 18 0,0
14.02.2019 08:00:00 -0,2 -0,4 - - 4 2 - - ENE 1032,9 0,1 0 0,0
14.02.2019 07:00:00 0,7 0,6 - - 11 6 - - ESE 1032,7 0,1 0 0,0
14.02.2019 06:00:00 1,3 1,0 - - 8 4 - - ENE 1032,8 0,1 0 0,0
14.02.2019 05:00:00 1,7 1,4 - - 11 6 - - SE 1032,8 0,8 0 0,0
14.02.2019 04:00:00 2,3 1,8 - - 11 6 - - S 1032,5 5 0 0,0
14.02.2019 03:00:00 2,0 1,0 - - 5 3 - - SSE 1032,7 7 0 0,0
14.02.2019 02:00:00 2,9 1,7 - - 8 4 - - S 1032,8 7 0 0,0
14.02.2019 01:00:00 4,0 3,2 - - 9 5 - - S 1032,7 9 0 0,0
14.02.2019 00:00:00 4,4 3,7 - - 9 5 - - SSW 1033,0 10 - 0,0
13.02.2019 23:00:00 4,7 4,0 - - 15 8 - - S 1032,9 10 0 0,0
13.02.2019 22:00:00 3,9 3,4 - - 11 6 - - SSE 1033,0 6 0 0,0
13.02.2019 21:00:00 4,0 3,3 - - 9 5 - - SSE 1032,8 10 0 0,0
13.02.2019 20:00:00 4,4 3,8 - - 13 7 - - S 1032,7 10 0 0,0
13.02.2019 19:00:00 3,8 2,6 - - 11 6 - - SSE 1032,9 10 0 0,0
13.02.2019 18:00:00 6,9 5,2 - - 11 6 - - SSE 1032,2 10 0 0,0
13.02.2019 17:00:00 7,7 4,4 - - 13 7 - - S 1032,4 10 0 0,0
13.02.2019 16:00:00 9,5 4,8 - - 13 7 - - S 1032,7 10 6 0,0
13.02.2019 15:00:00 10,6 4,9 - - 18 10 - - S 1032,5 10 48 0,0
13.02.2019 14:00:00 11,0 6,1 - - 22 12 - - S 1032,8 10 54 0,0
13.02.2019 13:00:00 10,3 5,8 - - 24 13 - - S 1033,1 10 48 0,0

tt = temperature
td = dewpoint
tt -20cm = temperature -20cm
tt -100cm = temperature -100cm
ff = wind speed
fx = gusts
dd = wind direction
ppp = reduced air pressure
vv = visibility
sd = sunshine duration
rr = precipitation

Next stations